Miscellaneous Local Product
Issued by NWS North Platte, NE

Home | Current Version | Previous Version | Text Only | Print | Product List | Glossary On
Versions: 1 2 3 4 5 6 7 8 9 10 11 12 13 14 15 16 17 18 19 20 21 22 23 24 25 26 27 28 29 30 31 32 33 34 35 36 37 38 39 40 41 42 43 44 45 46 47 48 49 50
000
AXUS43 KLBF 070310
MISLBF


WESTERN AND NORTH CENTRAL NEBRASKA HOURLY WEATHER ROUNDUP
NATIONAL WEATHER SERVICE NORTH PLATTE NE
1000 PM CDT MON JUL 06 2015

***STATIONS NOT REPORTING VARIABLES SUCH AS SKY/WEATHER OR
PRESSURE ARE PROVIDED BY THE NEBRASKA DEPARTMENT OF
ROADS...RAWS...AND APRS NETWORKS...AND ARE NOT UNDER
NATIONAL WEATHER SERVICE QUALITY CONTROL***

...OBSERVATIONS IN AND NEAR THE EASTERN PANHANDLE OF NEBRASKA...

CITY           SKY/WX    TMP DP  RH WIND       PRES   REMARKS
PINE RIDGE     MOCLDY    61  55  81 E3        30.19R
CHADRON        PTCLDY    64  58  80 NE3       30.19R
ALLIANCE       CLOUDY    64  56  75 NE5       30.21R
SIDNEY         CLOUDY    64  53  67 E6        30.25R HAZE
WHITECLAY        N/A     60  55  84 CALM        N/A
CRESCENT LAKE    N/A     64  53  67 E6          N/A
BIG SPRINGS      N/A     68  56  64 NE3         N/A
$$

...OBSERVATIONS IN NORTH CENTRAL NEBRASKA...

CITY           SKY/WX    TMP DP  RH WIND       PRES   REMARKS
VALENTINE      CLEAR     64  54  69 N6        30.17R
THEDFORD       PTCLDY    63  56  79 CALM      30.20R
AINSWORTH      CLEAR     63  56  79 CALM      30.17R
O`NEILL        CLEAR     62  56  81 N7        30.15R
ORD            PTCLDY    63  54  72 N5        30.12R
BROKEN BOW     PTCLDY    65  55  70 N6        30.15R
VALENTINE NWR    N/A     65  54  66 N5          N/A
SPRINGVIEW       N/A     64  55  73 CALM        N/A
HALSEY           N/A     64  53  67 NE3G13      N/A
BREWSTER         N/A     66  59  77 CALM        N/A
ROSE             N/A     75  72  91 NE8         N/A
NEWPORT          N/A     63  57  80 NE6         N/A
SARGENT          N/A     67  56  67 CALM        N/A
CHAMBERS         N/A     64  51  64 N6          N/A
EWING            N/A     63  57  81 CALM        N/A
$$

...OBSERVATIONS IN SOUTHWEST NEBRASKA AND FAR NORTHEAST COLORADO...

CITY           SKY/WX    TMP DP  RH WIND       PRES   REMARKS
WRAY           CLOUDY    68  52  55 NE6       30.22R
HOLYOKE        MOCLDY    68  54  60 NE7       30.23R
IMPERIAL       CLOUDY    66  52  60 NE6       30.20R
OGALLALA       CLOUDY    67  53  60 NE9       30.21R
NORTH PLATTE   PTCLDY    64  55  72 NE3       30.18R
MCCOOK         CLEAR     66  54  65 N10       30.15R HAZE
LEXINGTON      PTCLDY    64  55  72 N6        30.14R
PAXTON           N/A     67  57  71 CALM        N/A
GOTHENBURG       N/A     66  51  58 N3          N/A
CALLAWAY         N/A     64  56  77 N5          N/A
$$

...NORTH PLATTE AREA...

CITY           SKY/WX    TMP DP  RH WIND       PRES   REMARKS
AIRPORT        PTCLDY    64  55  72 NE3       30.18R
DOWNTOWN         N/A     66  55  68 CALM        N/A
HILLCREST        N/A     64  55  74 NE6         N/A
$$

...SOME WEATHER OBSERVATIONS FROM AROUND THE REGION...

CITY           SKY/WX    TMP DP  RH WIND       PRES   REMARKS
DENVER         CLOUDY    62  53  72 E6        30.27R FOG
LARAMIE        CLOUDY    54  50  86 SE13      30.32R
CHEYENNE       CLOUDY    57  52  83 SE8       30.30R HAZE
SCOTTSBLUFF    CLOUDY    65  59  81 E3        30.22R HAZE
RAPID CITY     MOCLDY    63  57  81 NW5       30.18S
PIERRE         LGT RAIN  65  55  70 NE3       30.12R
WINNER         FAIR      66  55  67 NE5       30.15R
SIOUX FALLS    CLEAR     60  53  77 N8        30.09S
OMAHA          CLOUDY    67  64  90 N5        30.01R FOG
GRAND ISLAND   CLEAR     65  56  72 N9        30.10R HAZE
KANSAS CITY    CLOUDY    72  71  97 NW6       29.90S
WICHITA        CLOUDY    74  71  91 N9        29.94R
HAYS           CLOUDY    73  54  49 NE16      30.07S
LIBERAL        CLOUDY    70  61  73 NE8       30.08S
GOODLAND       CLOUDY    65  54  67 NE7       30.20R HAZE
$$



USA.gov is the U.S. government's official web portal to all federal, state and local government web resources and services.